Location: Ku?niki
(51.4449°N, 17.8974°E)
Time: 03:59:37
(UTC+00:00)

DX 1 - Pass Details

Date: 26 June 2022
Orbit: 616 x 630 km, 98.4° (Epoch: 17 August)

Event Time Altitude Azimuth Distance (km) Brightness Sun altitude
Rises 21:02:05 0° 8° (N) 2,937 ? -11.5°
Reaches altitude 10° 21:04:27 10° 359° (N) 2,024 ? -11.6°
Maximum altitude 21:08:23 33° 296° (WNW) 1,060 ? -11.9°
Drops below altitude 10° 21:12:18 10° 232° (SW) 2,007 ? -12.1°
Sets 21:14:38 0° 223° (SW) 2,909 ? -12.3°
